Temp
-8 -8 -8 -9 -9 -9 -10 -10 -10 -10 -10 -10 -10 -10 -10 -10 -11 -11 -12 -13 -14 -15 -17 -18 -19 -19 -19 -20 -21 -21 -21 -19 -18 -19 -19 -18 -18 -18 -15 -15 -15 -14 -13 -15 -16
-8 -8 -9 -9 -9 -10 -10 -10 -10 -10 -11 -10 -10 -10 -10 -10 -11 -11 -12 -14 -15 -16 -18 -20 -20 -20 -20 -21 -21 -22 -22 -20 -21 -22 -21 -20 -19 -19 -18 -16 -17 -16 -16 -16 -15
-9 -9 -9 -9 -10 -10 -10 -10 -10 -11 -10 -10 -10 -10 -10 -11 -11 -12 -13 -14 -15 -17 -19 -20 -21 -21 -21 -22 -22 -22 -21 -22 -22 -23 -23 -22 -21 -19 -18 -17 -19 -18 -17 -17 -17
-9 -9 -9 -10 -10 -10 -10 -10 -11 -10 -10 -10 -10 -10 -11 -11 -12 -12 -13 -15 -16 -18 -20 -21 -21 -21 -21 -22 -22 -22 -22 -22 -22 -22 -23 -23 -22 -21 -19 -18 -19 -19 -17 -18 -17
-9 -9 -10 -10 -10 -10 -10 -11 -11 -10 -10 -10 -10 -11 -11 -11 -12 -13 -14 -16 -17 -18 -20 -21 -21 -22 -22 -22 -23 -24 -24 -24 -24 -23 -23 -23 -23 -22 -22 -20 -19 -19 -19 -19 -17
-10 -10 -10 -10 -10 -10 -11 -11 -10 -10 -10 -10 -11 -11 -11 -12 -13 -13 -14 -16 -17 -18 -20 -21 -22 -22 -22 -23 -24 -25 -26 -26 -26 -25 -24 -25 -23 -23 -23 -22 -21 -20 -19 -17 -18
-11 -10 -10 -10 -10 -11 -11 -11 -11 -10 -10 -10 -11 -11 -12 -12 -13 -14 -15 -16 -17 -18 -20 -21 -22 -22 -23 -24 -25 -26 -26 -26 -26 -27 -27 -27 -25 -25 -23 -23 -22 -21 -20 -18 -18
-11 -11 -11 -10 -11 -11 -11 -11 -11 -10 -10 -11 -11 -11 -12 -13 -14 -14 -15 -16 -18 -19 -20 -22 -22 -23 -24 -25 -26 -27 -26 -27 -27 -28 -28 -27 -26 -26 -25 -24 -23 -22 -20 -20 -18
-11 -11 -11 -11 -11 -11 -11 -11 -11 -11 -11 -11 -11 -12 -12 -13 -14 -14 -15 -17 -18 -20 -21 -22 -23 -24 -25 -26 -26 -27 -27 -27 -27 -28 -29 -28 -28 -27 -26 -26 -24 -23 -22 -21 -20
-11 -11 -11 -11 -11 -11 -11 -11 -11 -11 -11 -11 -12 -12 -13 -14 -14 -15 -16 -17 -18 -20 -21 -22 -23 -24 -25 -26 -27 -27 -27 -28 -28 -29 -29 -29 -29 -28 -27 -27 -25 -23 -22 -21 -20
-11 -11 -11 -11 -11 -11 -11 -11 -11 -11 -11 -12 -12 -13 -14 -15 -14 -15 -16 -18 -19 -21 -21 -22 -23 -24 -26 -26 -27 -27 -28 -28 -28 -29 -29 -29 -30 -29 -28 -27 -26 -24 -23 -21 -20
-11 -11 -11 -11 -11 -11 -11 -11 -11 -11 -12 -12 -13 -13 -14 -14 -15 -16 -17 -18 -20 -21 -22 -23 -24 -25 -26 -27 -27 -28 -28 -28 -27 -29 -29 -29 -30 -30 -29 -28 -27 -25 -23 -22 -20
-12 -12 -12 -12 -11 -11 -11 -11 -12 -12 -12 -13 -13 -14 -14 -15 -15 -16 -17 -18 -20 -21 -22 -23 -24 -25 -26 -27 -27 -27 -28 -28 -28 -29 -29 -30 -30 -30 -30 -29 -27 -26 -26 -22 -21
-12 -12 -12 -11 -12 -11 -11 -12 -12 -12 -13 -13 -13 -14 -15 -15 -16 -16 -18 -19 -20 -21 -22 -23 -24 -25 -26 -27 -28 -27 -28 -28 -28 -28 -28 -29 -29 -29 -30 -29 -29 -28 -25 -22 -21
-12 -12 -12 -11 -11 -12 -12 -12 -12 -12 -13 -13 -14 -15 -15 -15 -16 -16 -17 -19 -20 -22 -22 -23 -24 -25 -26 -27 -28 -27 -27 -27 -28 -28 -28 -28 -29 -29 -29 -28 -29 -26 -24 -22 -21
-12 -12 -12 -12 -12 -12 -12 -12 -12 -13 -14 -14 -14 -15 -15 -16 -16 -17 -17 -18 -19 -21 -23 -24 -24 -25 -27 -27 -28 -27 -27 -27 -28 -28 -27 -28 -29 -28 -29 -29 -28 -27 -24 -22 -21
-12 -12 -12 -12 -12 -12 -12 -13 -13 -13 -14 -14 -15 -15 -16 -16 -16 -17 -18 -18 -19 -19 -21 -23 -24 -24 -26 -27 -27 -27 -27 -27 -28 -28 -28 -28 -28 -27 -28 -29 -28 -27 -25 -22 -21
-12 -12 -12 -12 -13 -13 -12 -13 -13 -13 -14 -14 -15 -15 -16 -15 -16 -17 -18 -19 -19 -20 -20 -23 -25 -25 -26 -27 -27 -27 -28 -28 -27 -28 -27 -28 -28 -28 -28 -28 -28 -27 -25 -23 -21
-13 -13 -13 -12 -13 -13 -13 -13 -14 -14 -14 -14 -15 -15 -16 -16 -17 -17 -18 -19 -20 -20 -21 -21 -24 -25 -25 -26 -28 -27 -28 -28 -27 -27 -27 -27 -27 -27 -28 -28 -27 -27 -25 -23 -22
-12 -13 -13 -13 -13 -13 -13 -14 -14 -14 -14 -15 -15 -15 -16 -16 -17 -18 -18 -19 -20 -21 -21 -22 -22 -25 -26 -26 -27 -28 -28 -27 -28 -27 -27 -28 -27 -27 -28 -28 -27 -26 -24 -22 -21
-13 -13 -13 -13 -13 -13 -14 -14 -14 -14 -15 -15 -15 -16 -16 -16 -17 -18 -19 -19 -20 -21 -22 -22 -22 -24 -25 -26 -27 -28 -28 -28 -28 -28 -28 -27 -28 -27 -28 -28 -27 -26 -25 -23 -21
-13 -13 -13 -13 -14 -13 -14 -14 -14 -15 -15 -15 -15 -16 -16 -17 -18 -18 -19 -20 -21 -21 -21 -23 -23 -23 -24 -25 -26 -27 -29 -28 -28 -28 -28 -28 -27 -27 -27 -27 -27 -26 -25 -23 -22
-13 -13 -14 -14 -14 -14 -14 -15 -15 -15 -15 -15 -16 -16 -16 -17 -18 -19 -19 -20 -21 -21 -22 -22 -24 -23 -24 -25 -26 -27 -28 -29 -28 -28 -27 -27 -27 -27 -27 -27 -27 -26 -25 -23 -22
-13 -14 -14 -14 -15 -15 -15 -15 -15 -15 -16 -16 -16 -16 -17 -18 -19 -19 -19 -20 -21 -22 -22 -22 -23 -24 -25 -26 -27 -27 -29 -29 -29 -29 -28 -27 -27 -27 -27 -27 -26 -26 -25 -24 -22
-14 -14 -14 -15 -15 -15 -15 -15 -16 -16 -16 -16 -16 -16 -17 -18 -19 -20 -20 -20 -21 -22 -22 -22 -23 -23 -25 -26 -27 -27 -29 -29 -29 -29 -28 -28 -27 -26 -27 -26 -27 -26 -25 -24 -21
-15 -14 -14 -15 -15 -16 -16 -15 -16 -16 -16 -16 -16 -17 -18 -18 -19 -20 -20 -21 -21 -21 -22 -22 -23 -23 -25 -26 -26 -27 -27 -29 -29 -29 -29 -28 -27 -26 -26 -26 -27 -26 -25 -24 -23
-15 -15 -14 -15 -15 -16 -16 -16 -16 -16 -16 -17 -17 -17 -18 -18 -19 -21 -21 -21 -22 -22 -23 -23 -23 -23 -24 -25 -26 -27 -28 -28 -29 -29 -29 -28 -28 -27 -26 -26 -26 -26 -25 -25 -24
Height
5776 5773 5770 5766 5763 5760 5758 5756 5753 5751 5747 5742 5736 5729 5721 5713 5703 5691 5677 5664 5652 5637 5620 5609 5603 5599 5593 5588 5584 5579 5577 5582 5592 5598 5605 5618 5614 5624 5628 5628 5649 5660 5658 5673 5690
5771 5768 5765 5761 5759 5757 5755 5752 5750 5747 5742 5736 5728 5721 5712 5702 5691 5679 5666 5651 5634 5620 5607 5598 5591 5585 5580 5576 5571 5566 5563 5572 5576 5576 5577 5587 5591 5596 5601 5607 5625 5640 5647 5649 5662
5766 5763 5760 5757 5755 5753 5751 5749 5746 5741 5735 5728 5721 5712 5702 5692 5683 5670 5654 5641 5626 5610 5596 5587 5580 5574 5569 5565 5559 5553 5553 5555 5563 5556 5557 5560 5564 5569 5584 5593 5604 5616 5625 5629 5643
5761 5758 5756 5754 5752 5750 5748 5745 5741 5736 5729 5721 5713 5703 5693 5683 5672 5658 5643 5628 5615 5601 5588 5577 5570 5562 5557 5553 5547 5541 5540 5539 5543 5544 5541 5543 5551 5558 5566 5571 5580 5594 5607 5611 5629
5757 5754 5753 5752 5750 5748 5745 5741 5736 5730 5723 5714 5705 5696 5687 5676 5665 5650 5634 5619 5604 5591 5578 5568 5561 5553 5546 5538 5533 5527 5525 5523 5523 5527 5526 5526 5528 5541 5544 5546 5561 5575 5588 5599 5614
5753 5752 5751 5750 5748 5745 5742 5737 5731 5724 5716 5707 5698 5689 5678 5668 5654 5640 5626 5610 5596 5582 5571 5559 5550 5543 5535 5527 5522 5517 5513 5512 5511 5511 5513 5509 5514 5516 5526 5530 5540 5556 5571 5589 5598
5751 5750 5749 5748 5746 5742 5738 5731 5725 5718 5710 5701 5692 5682 5671 5660 5645 5630 5616 5602 5588 5574 5564 5552 5542 5533 5524 5518 5514 5508 5502 5503 5502 5496 5495 5494 5490 5496 5514 5516 5520 5534 5552 5568 5580
5749 5748 5747 5745 5742 5738 5733 5726 5719 5712 5703 5695 5685 5675 5664 5650 5635 5622 5609 5594 5580 5569 5557 5547 5536 5525 5514 5508 5504 5499 5496 5491 5493 5479 5478 5477 5470 5487 5495 5496 5498 5513 5531 5543 5566
5747 5746 5744 5742 5738 5734 5728 5722 5715 5706 5697 5689 5678 5668 5656 5642 5630 5617 5602 5589 5575 5562 5550 5538 5527 5518 5507 5498 5496 5491 5486 5482 5480 5472 5466 5464 5459 5471 5479 5477 5482 5496 5511 5529 5550
5745 5743 5741 5738 5734 5729 5723 5717 5709 5700 5691 5682 5671 5661 5647 5634 5621 5609 5594 5583 5570 5557 5547 5532 5521 5511 5500 5490 5486 5483 5477 5472 5465 5467 5458 5453 5448 5454 5461 5460 5468 5480 5492 5512 5532
5743 5742 5739 5734 5729 5724 5719 5711 5705 5696 5685 5676 5664 5650 5639 5627 5615 5604 5592 5576 5562 5546 5536 5525 5515 5502 5493 5484 5480 5475 5469 5462 5461 5457 5448 5445 5440 5440 5446 5447 5456 5464 5481 5499 5523
5742 5740 5736 5731 5725 5719 5712 5705 5697 5690 5679 5668 5657 5645 5633 5620 5609 5597 5585 5570 5555 5542 5530 5518 5505 5493 5485 5479 5474 5468 5460 5456 5451 5449 5441 5436 5430 5429 5431 5433 5442 5453 5467 5492 5510
5740 5736 5732 5727 5722 5715 5708 5700 5691 5682 5673 5663 5650 5637 5626 5615 5603 5590 5577 5563 5548 5535 5521 5509 5501 5490 5481 5475 5469 5464 5453 5447 5442 5442 5436 5428 5422 5420 5421 5419 5430 5442 5449 5463 5474
5737 5732 5728 5723 5719 5711 5702 5694 5684 5676 5667 5659 5645 5633 5621 5606 5597 5582 5568 5556 5541 5529 5517 5505 5494 5485 5477 5471 5463 5458 5451 5442 5437 5434 5430 5427 5416 5418 5414 5416 5418 5418 5434 5453 5467
5734 5729 5724 5717 5712 5704 5697 5688 5678 5669 5661 5652 5639 5627 5613 5602 5590 5579 5565 5551 5539 5526 5513 5504 5494 5481 5472 5465 5459 5453 5447 5439 5434 5430 5425 5423 5416 5415 5411 5410 5409 5416 5430 5447 5463
5730 5725 5719 5713 5707 5700 5690 5682 5674 5665 5653 5645 5633 5621 5610 5597 5584 5571 5558 5546 5534 5523 5512 5495 5490 5479 5468 5462 5454 5449 5443 5437 5430 5427 5421 5418 5414 5412 5410 5408 5410 5414 5424 5440 5458
5724 5719 5713 5707 5701 5693 5685 5677 5668 5658 5649 5638 5627 5615 5603 5592 5580 5566 5554 5543 5532 5523 5511 5501 5485 5478 5468 5460 5452 5444 5437 5433 5428 5423 5418 5416 5413 5410 5408 5407 5409 5413 5420 5433 5450
5719 5713 5708 5702 5695 5687 5679 5670 5663 5652 5643 5633 5622 5609 5598 5586 5576 5563 5552 5539 5525 5513 5499 5490 5477 5468 5461 5453 5446 5440 5435 5428 5423 5422 5418 5415 5411 5409 5407 5407 5407 5411 5418 5429 5446
5714 5709 5703 5696 5688 5680 5673 5664 5655 5645 5636 5626 5616 5604 5592 5579 5568 5559 5546 5535 5522 5509 5500 5485 5482 5469 5461 5450 5443 5438 5433 5428 5421 5420 5416 5410 5410 5407 5405 5405 5407 5409 5415 5426 5441
5709 5704 5697 5690 5682 5674 5667 5659 5649 5640 5630 5618 5607 5597 5585 5575 5565 5551 5540 5530 5518 5506 5493 5483 5473 5464 5452 5444 5440 5433 5429 5426 5421 5415 5414 5411 5409 5408 5404 5403 5406 5409 5413 5422 5436
5703 5697 5691 5683 5676 5668 5659 5652 5643 5633 5623 5612 5600 5589 5578 5569 5559 5546 5535 5524 5512 5502 5489 5478 5469 5464 5453 5444 5435 5430 5423 5420 5417 5414 5410 5408 5406 5406 5405 5403 5405 5407 5411 5419 5430
5697 5691 5682 5676 5670 5662 5653 5644 5636 5626 5616 5605 5594 5582 5571 5560 5553 5541 5529 5518 5506 5495 5486 5476 5465 5456 5448 5439 5430 5424 5418 5414 5412 5410 5407 5403 5401 5402 5403 5403 5403 5405 5408 5416 5426
5692 5686 5677 5669 5661 5654 5646 5637 5628 5618 5608 5597 5586 5576 5565 5554 5545 5535 5525 5515 5502 5490 5480 5470 5457 5449 5442 5436 5427 5419 5413 5408 5405 5402 5401 5399 5397 5394 5397 5399 5400 5402 5406 5412 5422
5681 5676 5669 5661 5653 5645 5638 5629 5619 5611 5601 5590 5579 5568 5559 5551 5538 5531 5520 5510 5501 5489 5477 5466 5458 5443 5433 5425 5416 5412 5408 5402 5399 5397 5395 5393 5392 5392 5390 5394 5397 5398 5401 5407 5417
5671 5665 5659 5651 5642 5634 5626 5619 5610 5602 5593 5582 5572 5561 5551 5542 5534 5524 5514 5501 5493 5483 5472 5463 5455 5442 5433 5421 5414 5409 5403 5396 5392 5390 5388 5387 5386 5386 5385 5387 5390 5395 5398 5402 5410
5660 5653 5648 5644 5635 5627 5617 5610 5602 5591 5584 5574 5565 5554 5542 5533 5523 5516 5506 5494 5488 5477 5468 5460 5448 5435 5430 5417 5410 5402 5398 5391 5385 5383 5382 5380 5380 5380 5381 5381 5385 5390 5395 5399 5405
5650 5643 5636 5633 5624 5617 5608 5599 5590 5580 5575 5565 5554 5545 5534 5525 5514 5506 5496 5487 5477 5469 5459 5447 5437 5428 5422 5410 5403 5397 5390 5384 5378 5374 5374 5374 5374 5373 5375 5378 5379 5383 5390 5394 5400
Wind_Speed
28 27 26 25 21 16 14 18 23 28 31 35 40 45 49 54 59 64 70 71 69 73 64 52 47 46 46 45 47 51 57 64 68 65 65 66 73 74 81 84 78 81 84 65 63
27 25 22 19 15 13 15 19 25 29 35 39 44 50 55 60 65 69 72 72 70 71 57 48 46 46 45 45 44 45 49 46 50 54 58 60 68 76 80 83 77 76 82 84 61
23 21 19 13 12 13 17 19 24 32 39 44 49 53 59 63 65 68 70 71 69 69 55 48 46 43 43 43 45 48 49 46 43 53 58 64 71 76 80 84 73 66 80 83 83
20 21 13 13 12 15 17 20 28 35 41 46 51 58 63 66 67 69 71 72 69 65 57 51 46 44 43 42 45 49 49 50 49 50 57 61 64 72 77 84 84 84 69 81 81
21 17 12 10 13 16 19 25 32 37 43 48 55 60 63 66 67 68 73 71 67 66 57 52 47 45 44 46 44 41 41 44 47 52 58 62 66 65 74 83 84 82 79 78 75
18 10 10 11 15 18 23 29 34 40 46 51 57 61 65 65 68 69 72 73 67 63 55 53 48 47 46 44 40 39 42 40 41 44 50 59 63 69 73 80 83 81 82 72 76
12 10 9 13 16 21 26 31 38 44 48 53 58 63 64 66 68 71 74 74 67 63 57 52 49 49 48 43 39 37 35 35 36 45 48 52 63 65 67 75 82 83 84 90 69
9 9 12 14 18 24 29 36 41 45 50 55 60 63 64 67 69 71 74 73 68 61 56 51 48 47 48 41 36 31 35 37 27 36 44 53 63 57 60 73 83 83 85 92 97
9 11 13 16 20 27 34 38 42 47 52 56 61 62 63 66 69 70 72 70 64 58 55 51 48 46 42 42 35 30 37 40 33 23 34 44 59 58 56 62 76 82 83 86 89
10 14 17 19 23 32 37 41 45 49 53 57 61 64 64 66 67 69 71 71 65 57 52 51 48 44 41 38 33 35 41 40 36 21 29 38 40 52 60 64 67 79 84 84 89
15 17 19 23 30 35 39 44 47 51 54 58 62 62 63 64 69 67 69 68 63 58 54 50 47 43 34 29 26 33 39 38 27 26 33 33 45 47 50 61 63 74 80 79 79
18 19 24 30 34 38 43 46 48 52 56 58 61 62 64 65 67 68 68 68 62 58 54 52 48 43 32 26 27 34 37 32 30 25 32 35 33 35 44 55 62 64 77 78 84
19 22 28 32 35 39 43 46 50 53 56 58 60 61 63 65 67 66 67 66 65 60 56 54 49 41 35 29 32 36 40 33 36 24 30 32 35 15 12 27 45 55 60 83 92
25 27 30 33 36 39 44 48 53 55 58 59 61 62 62 65 66 66 67 66 63 62 59 55 50 42 36 30 34 33 34 32 30 28 30 26 36 17 22 19 24 49 62 81 89
26 31 33 35 38 44 46 50 54 57 59 62 63 63 63 64 66 66 65 65 64 61 59 54 49 43 37 32 32 33 30 27 24 22 25 11 25 18 19 13 23 38 61 76 83
30 33 36 39 42 45 49 51 55 57 58 60 61 61 61 63 65 66 66 66 67 63 57 56 51 45 35 33 31 30 27 26 24 22 22 12 18 19 17 17 24 26 55 72 80
32 34 37 40 45 48 50 53 56 57 59 62 61 61 61 61 64 66 65 66 66 66 66 57 54 49 37 29 29 30 28 27 25 25 24 22 20 22 12 15 18 23 49 69 81
32 40 44 47 51 51 51 54 56 58 58 60 62 61 61 64 63 65 64 64 66 67 71 65 52 54 48 34 29 26 27 28 28 21 20 17 17 21 21 21 23 22 41 64 76
35 44 49 52 50 50 52 54 56 57 59 61 62 63 63 64 64 64 65 64 64 67 68 71 56 50 50 37 28 26 26 26 25 21 20 24 15 21 20 23 23 22 33 57 72
39 47 47 48 50 51 52 54 55 55 59 61 63 64 65 63 62 64 65 65 63 64 68 68 69 55 49 46 34 28 25 24 22 23 17 20 20 21 15 19 24 20 31 53 65
42 46 49 49 49 51 53 54 54 56 59 63 65 64 64 64 61 62 63 65 63 64 65 69 70 63 56 48 40 28 26 25 23 20 20 21 24 20 17 15 22 21 27 42 64
44 45 46 50 49 49 51 53 54 56 59 63 65 65 65 63 59 60 61 62 63 64 65 66 70 68 63 57 46 32 24 25 26 21 19 24 27 25 19 14 22 27 30 36 51
43 44 47 48 50 49 50 53 54 58 61 64 66 65 65 61 60 59 60 60 61 63 65 67 68 70 66 60 51 39 26 23 24 27 22 22 23 24 20 14 22 28 32 38 46
46 47 49 48 50 50 50 53 57 59 62 65 67 65 63 59 59 58 59 60 58 60 63 66 65 68 65 62 56 44 30 27 23 25 26 24 23 23 20 19 18 26 31 38 51
48 49 49 50 50 52 55 56 59 61 64 65 67 64 63 61 58 56 57 60 59 59 62 64 65 69 64 61 56 49 31 29 26 25 26 26 26 24 18 25 19 28 30 39 57
50 53 54 50 49 51 57 59 62 66 66 67 67 64 63 61 60 56 57 59 58 59 60 62 65 70 64 63 60 51 38 29 27 27 27 28 28 26 20 29 25 25 36 32 46
51 55 58 54 53 55 59 62 65 68 68 67 67 65 62 61 59 57 58 58 59 60 62 64 67 69 68 66 62 48 43 31 25 28 28 27 29 28 24 28 31 26 32 41 41
Wind_Direction
326 331 332 332 337 345 357 360 352 351 346 349 348 346 343 339 339 334 331 328 327 327 322 314 305 295 289 285 278 271 265 263 262 262 261 251 249 245 246 246 235 234 240 239 235
329 330 333 337 343 0 357 351 351 349 351 352 351 349 345 344 341 338 335 333 334 332 326 316 310 302 293 286 282 276 271 269 261 255 250 245 243 241 240 239 238 235 237 234 235
328 331 340 342 358 2 353 352 353 355 355 355 355 352 350 347 343 339 334 336 337 335 327 318 312 305 296 289 283 277 275 267 260 255 251 244 236 238 236 236 233 235 231 234 234
330 336 341 358 6 356 354 345 349 355 357 356 356 354 351 348 344 340 336 340 343 338 331 324 317 309 302 295 286 280 277 270 259 251 250 248 243 240 237 236 231 225 226 235 230
335 336 352 10 0 359 353 354 359 358 357 355 354 352 350 348 345 342 339 343 345 341 334 326 320 312 307 301 294 291 282 275 268 254 247 246 243 237 235 237 233 229 225 233 235
336 344 2 3 3 0 357 1 359 358 356 356 353 351 350 349 347 345 343 345 347 343 336 328 323 318 314 307 301 298 292 287 279 271 257 250 243 239 234 233 233 226 223 218 219
339 353 7 2 2 359 1 359 357 357 355 355 353 353 351 350 349 347 346 346 347 345 339 331 325 321 315 309 304 300 299 298 298 272 260 256 246 241 236 235 234 230 221 214 218
352 15 8 9 359 2 1 357 355 355 355 355 353 354 352 353 351 349 346 347 347 345 339 333 327 323 318 309 303 294 301 301 320 280 262 255 251 243 238 235 233 229 224 217 216
32 14 7 0 3 3 358 357 356 354 354 353 353 354 354 354 352 350 347 348 347 344 339 336 333 327 320 308 299 297 301 305 311 295 278 263 257 250 240 242 236 230 225 219 211
29 19 8 10 6 359 355 355 356 353 353 353 354 353 354 355 352 351 347 346 348 346 342 339 336 333 325 315 309 294 299 307 306 313 280 267 266 256 247 246 237 230 226 222 213
33 18 9 5 359 355 355 354 355 354 354 354 354 354 354 354 351 350 347 347 350 348 346 342 339 336 329 319 314 307 307 308 303 295 290 297 271 261 255 248 240 230 224 220 213
29 17 7 2 357 354 355 353 355 354 354 353 354 354 353 354 351 349 348 348 351 352 349 346 341 339 335 324 324 325 316 312 305 297 294 298 297 271 260 250 243 233 224 215 209
20 11 5 3 357 354 353 353 354 354 354 354 353 354 351 353 350 348 349 348 352 354 352 350 346 341 332 319 320 324 326 310 301 291 300 302 304 284 296 256 240 233 230 212 212
15 8 3 357 352 352 353 353 352 352 353 353 353 351 351 351 349 348 348 350 353 354 354 352 347 342 337 322 321 330 322 314 304 294 311 299 295 285 293 285 230 230 221 211 213
7 1 356 351 351 352 351 351 351 351 353 352 353 350 350 350 347 348 348 349 353 355 355 352 353 344 340 329 325 330 331 326 316 312 307 331 285 302 271 288 222 220 213 208 209
358 354 352 349 348 348 349 350 349 350 351 351 351 350 350 348 346 346 347 348 350 353 357 355 354 349 339 330 324 327 330 327 325 319 309 322 278 331 236 277 235 225 211 207 205
351 347 345 345 345 343 345 346 348 349 348 349 349 351 349 346 346 344 345 346 347 350 352 359 353 355 346 333 319 324 328 327 330 323 321 334 287 312 269 244 229 227 212 207 203
339 343 339 336 336 339 341 344 344 346 347 348 349 348 347 349 345 344 344 345 346 349 350 357 354 353 351 340 327 317 329 326 322 325 310 307 249 309 321 229 213 223 216 211 205
330 331 330 333 337 337 338 340 343 343 344 346 346 347 348 346 343 343 342 344 346 347 350 350 1 353 353 349 329 320 313 326 318 321 314 326 266 306 319 225 220 222 215 211 210
329 332 334 333 333 335 338 338 340 341 342 344 346 347 347 345 341 340 341 342 344 347 348 350 353 354 352 347 341 322 310 307 319 317 304 313 304 315 316 224 216 216 211 210 208
326 327 330 332 332 335 335 336 337 340 341 342 344 344 344 342 340 337 339 340 342 345 346 346 348 353 353 352 345 327 303 301 302 308 297 284 278 286 309 235 210 213 203 209 207
327 327 329 329 331 332 333 334 336 338 340 340 341 342 342 339 339 336 337 338 340 341 344 345 344 349 351 352 350 340 314 296 287 286 296 287 280 279 290 256 218 212 206 204 212
324 324 324 326 327 329 330 332 335 337 339 339 339 340 340 336 335 335 335 337 338 339 341 343 344 345 349 349 351 348 328 304 288 282 283 286 285 285 272 245 220 206 206 201 202
321 325 324 323 324 326 330 331 334 336 337 339 338 337 336 333 332 333 333 334 336 336 338 340 343 343 345 347 348 346 332 307 287 281 273 278 278 282 272 232 223 206 204 203 204
320 323 327 324 323 325 327 330 332 334 336 336 336 334 333 331 330 330 331 330 335 335 336 337 340 340 344 343 344 346 333 306 290 275 271 269 272 272 272 225 220 205 199 205 206
317 319 322 323 319 322 324 327 330 331 333 333 333 332 331 331 328 329 327 327 332 333 333 334 338 337 342 339 341 341 339 322 292 275 267 261 266 267 267 224 219 209 207 194 207
314 316 317 319 319 322 323 326 328 330 330 330 329 330 329 328 325 326 326 326 329 331 331 334 335 334 338 337 338 339 336 326 302 279 263 260 258 263 255 230 215 208 211 213 206